Powrót do katalogu

STARLINK-3189

AktywnyŁącznośćVLEO
NORAD 51464·PAYLOAD·🇺🇸 United States

Wystrzelony Feb 3, 2022 z Cape Canaveral Space Force Station

Loading…

Następne Przeloty (najbliższe 24 godziny)

TLE

ŚwieżeSource: CelesTrak SupGP

Epoka: Sep 14, 2026, 20:08 UTC

1 51464C 22010J   26257.83937500 -.00035246  00000+0 -10413-2 0  2571
2 51464  53.1590 142.5401 0001297  87.6068 352.0561 15.34409999    12

Śledź STARLINK-3189 w czasie rzeczywistym z AllMySat

Download on the App Store